Weather in Otrokiv

Ukraine / Khmelnitsky District     48°48′41″N   27°06′46″E
temp.,
°C
wind,
m/s
gust,
m/s
humid.,
%
clouds,
%
prec.,
mm/h
press.,
hPa
HPBL,
m
8 may, sat
sat800:00+10nw3886100 0.0 1008237
03:00+9wnw3890100 0.6 1009317
06:00+6nw101490100 1.6 1011969
09:00+7wnw9128194 1.9 1014892
12:00+6nw9147591 0.1 10171351
15:00+8nw101362100 0.2 10191542
18:00+9nw811585 0.1 10191701
21:00+5nw49720 0.1 1021199
9 may, sun
sun900:00+3wnw35840 0.0 102375
03:00+2wnw35920 0.0 102484
06:00+2wnw22904 0.0 102524
09:00+9wnw34664 0.0 1026477
12:00+13nw344842 0.0 10261852
15:00+14w234199 0.0 10252001
18:00+15s023997 0.0 10251865
21:00+9se33625 0.0 102624
10 may, mon
mon1000:00+7se33675 0.0 102746
03:00+6se336828 0.0 102737
06:00+6ese35715 0.0 102682
09:00+12se610575 0.0 1027492
12:00+16se795069 0.0 10261313
15:00+18sse78495 0.0 10241524
18:00+17se67555 0.0 10231385
21:00+11ese4107618 0.0 1024178
11 may, tue
tue1100:00+9ese4107438 0.0 1025174
03:00+8ese497724 0.0 1024179
06:00+6ese488053 0.0 1024133
09:00+12ese69635 0.0 1024435
12:00+16se67480 0.0 10221110
15:00+18ese56390 0.0 10211259
18:00+17ese56490 0.0 10191184
21:00+12ese36780 0.0 101978
12 may, wed
wed1200:00+10e38910 0.0 1019146
03:00+9e410966 0.0 1017230
06:00+7e511951 0.0 1017297
09:00+12ese57730 0.0 1016612
12:00+15ese67543 0.0 10141299
15:00+16ese665098 0.0 10121882
18:00+12ese61070100 0.0 1012599
21:00+10ese597195 0.0 1011473